Location: Pacheco
(37.9835°N, 122.0752°W)
Time: 05:48:02
(UTC+00:00)

Cosmos 1470 Rocket - Visible Passes

Search period start: 16 July 2024 00:00
Search period end: 26 July 2024 00:00
Orbit: 599 x 631 km, 82.5° (Epoch: 15 July)

Date Brightness Start Highest point End Pass type
(mag) Time Alt. Az. Time Alt. Az. Time Alt. Az.
18 Jul 6.8 11:41:22 10° E 11:42:08 10° E 11:42:55 10° ENE visible
19 Jul 6.2 11:54:49 10° SE 11:57:56 20° E 12:01:03 10° NE visible
20 Jul 5.1 12:09:52 10° SSE 12:13:49 36° E 12:17:46 10° NNE visible
21 Jul 3.8 12:25:30 10° S 12:29:46 71° E 12:34:04 10° NNE visible
23 Jul 6.1 11:21:29 10° SE 11:24:25 18° E 11:27:22 10° NE visible
24 Jul 5.1 11:36:26 10° SSE 11:40:17 33° E 11:44:09 10° NNE visible
25 Jul 3.9 11:51:59 10° S 11:56:13 65° E 12:00:29 10° NNE visible
